Estación Meteorológica Peña el Pijo (Robertgarden) [ 11/14/19 11:51:10 CET ]

Fecha Hora Presion(HPa) Temp (°C) Humedad % Rocio (°C) Viento ( m/s) Direccion Lluvia 1Hora(mm) Lluvia 24H(mm) LLuvia Total(mm)
2019-Jun-03 01:01:43 1012.400 - - -         318.05
2019-Jun-03 02:01:54 1011.800 - - -         318.05
2019-Jun-03 03:01:49 1011.500 - - -         318.05
2019-Jun-03 04:05:13 1011.100 - - -         318.05
2019-Jun-03 05:01:42 1010.800 - - -         318.05
2019-Jun-03 06:01:54 1010.800 - - -         318.05
2019-Jun-03 07:01:48 1010.800 - - -         318.05
2019-Jun-03 08:01:50 1010.900 - - -         318.05
2019-Jun-03 09:01:49 1011.300 - - -         318.05
2019-Jun-03 10:01:34 1011.400 33.4 41 18.3         318.05
2019-Jun-03 11:01:50 1011.100 31.3 26 9.3         318.05
2019-Jun-03 12:01:49 1010.800 33.6 22 8.8 0.5 N     318.05
2019-Jun-03 13:01:51 1010.500 35.9 20 9.5         318.05
2019-Jun-03 14:01:59 1010.100 34.3 19 7.2         318.05
2019-Jun-03 15:01:49 1009.700 - - -         318.05
2019-Jun-03 16:01:40 1009.400 - - -         318.05
2019-Jun-03 17:01:45 1009.100 - - -         318.05
2019-Jun-03 18:01:56 1009.100 30.2 23 6.6 0.6 NNE     318.05
2019-Jun-03 19:01:52 1008.900 29.6 26 7.8 2.8 NNE     318.05
2019-Jun-03 20:01:42 1008.900 28.1 27 7.1         318.05
2019-Jun-03 21:01:43 1009.000 24.9 30 6.4         318.05
2019-Jun-03 22:01:39 1009.100 21.9 36 5.7         318.05
2019-Jun-03 23:01:37 1009.700 18.6 44 6.2         318.05

Temperatura Máxima:35°    Temperatura Mínima:
Presión Máxima:1012.400 Hpa    Presión Mínima:1008.900 Hpa


Volver